Location: Kuppenheim
(48.8299°N, 8.2568°E)
Time: 09:06:08
(UTC+00:00)

Cosmos 1570 Rocket - Pass Details

Date: 20 June 2021
Orbit: 763 x 788 km, 74.1° (Epoch: 03 August)

Event Time Altitude Azimuth Distance (km) Brightness Sun altitude
Exits shadow 01:01:41 21° 181° (S) 1,673 5.2 -14.8°
Maximum altitude 01:05:07 60° 108° (ESE) 876 4.3 -14.6°
Drops below altitude 10° 01:10:15 10° 29° (NNE) 2,308 7.9 -14.2°
Sets 01:12:39 0° 26° (NNE) 3,239 9.3 -14.1°
